Location: Kalberh�ni
(46.4610°N, 7.2453°E)
Time: 07:39:49
(UTC+00:00)

FALCON 9 DEB - Pass Details

Date: 31 October 2021
Orbit: 344 x 354 km, 53.0° (Epoch: 30 November)

Event Time Altitude Azimuth Distance (km) Brightness Sun altitude
Rises 18:19:31 0° 276° (W) 2,175 8.2 -21.5°
Reaches altitude 10° 18:21:44 10° 290° (WNW) 1,336 6.6 -21.9°
Enters shadow 18:23:42 24° 329° (NNW) 809 4.8 -22.2°
